| time (UTC) | temp F | wind direction | speed knots | gust knots | rain 1hr in | rain 24hr in | rain mn in | humidity % | barometer mb |
| 20260508175520 | 65 | 72 | 0.0 | 0.0 | 0.00 | 0.00 | 0.00 | 86 | 1017.3 |
| 20260508175017 | 65 | 62 | 0.0 | 0.0 | 0.00 | 0.00 | 0.00 | 88 | 1017.3 |
| 20260508174514 | 65 | 97 | 0.0 | 0.0 | 0.00 | 0.00 | 0.00 | 87 | 1017.3 |
| 20260508174011 | 64 | 86 | 0.0 | 0.0 | 0.00 | 0.00 | 0.00 | 88 | 1017.3 |
| 20260508173508 | 64 | 73 | 0.0 | 0.0 | 0.00 | 0.00 | 0.00 | 89 | 1017.6 |
| 20260508173004 | 64 | 145 | 0.0 | 0.0 | 0.00 | 0.00 | 0.00 | 89 | 1017.3 |
| 20260508172501 | 64 | 133 | 0.0 | 0.0 | 0.00 | 0.00 | 0.00 | 89 | 1017.3 |
| 20260508171958 | 64 | 100 | 0.0 | 0.0 | 0.00 | 0.00 | 0.00 | 89 | 1017.3 |
| 20260508171455 | 64 | 114 | 0.0 | 0.0 | 0.00 | 0.00 | 0.00 | 89 | 1017.6 |
| 20260508170951 | 63 | 76 | 0.0 | 0.9 | 0.00 | 0.00 | 0.00 | 90 | 1017.6 |
| 20260508170448 | 64 | 62 | 0.0 | 0.0 | 0.00 | 0.00 | 0.00 | 89 | 1017.3 |
| 20260508165945 | 64 | 87 | 0.0 | 0.0 | 0.00 | 0.00 | 0.00 | 90 | 1017.3 |
| 20260508165444 | 63 | 65 | 1.7 | 2.6 | 0.00 | 0.00 | 0.00 | 90 | 1017.3 |
| 20260508164939 | 63 | 98 | 0.0 | 0.0 | 0.00 | 0.00 | 0.00 | 91 | 1017.6 |
| 20260508164436 | 63 | 66 | 0.0 | 0.0 | 0.00 | 0.00 | 0.00 | 91 | 1017.3 |
| 20260508163933 | 63 | 59 | 0.0 | 0.0 | 0.00 | 0.00 | 0.00 | 90 | 1017.3 |
| 20260508163431 | 63 | 82 | 0.0 | 0.0 | 0.00 | 0.00 | 0.00 | 90 | 1017.3 |
| 20260508162926 | 63 | 131 | 0.0 | 0.0 | 0.00 | 0.00 | 0.00 | 91 | 1017.3 |
| 20260508162424 | 63 | 90 | 0.0 | 0.0 | 0.00 | 0.00 | 0.00 | 91 | 1017.3 |
| 20260508161921 | 63 | 62 | 0.0 | 0.0 | 0.00 | 0.00 | 0.00 | 92 | 1017.3 |
| 20260508161418 | 63 | 101 | 0.0 | 0.0 | 0.00 | 0.00 | 0.00 | 92 | 1017.3 |
| 20260508160915 | 62 | 101 | 0.0 | 0.0 | 0.00 | 0.00 | 0.00 | 92 | 1017.3 |
| 20260508160414 | 62 | 151 | 0.0 | 0.0 | 0.00 | 0.00 | 0.00 | 92 | 1017.3 |
| 20260508155909 | 62 | 144 | 0.0 | 0.0 | 0.00 | 0.00 | 0.00 | 92 | 1017.3 |
| 20260508155407 | 62 | 93 | 0.0 | 0.0 | 0.00 | 0.00 | 0.00 | 92 | 1016.9 |
| 20260508154904 | 62 | 88 | 0.0 | 0.0 | 0.00 | 0.00 | 0.00 | 93 | 1017.3 |
| 20260508154401 | 62 | 128 | 2.6 | 2.6 | 0.00 | 0.00 | 0.00 | 93 | 1016.9 |
| 20260508153858 | 62 | 94 | 0.0 | 0.0 | 0.00 | 0.00 | 0.00 | 93 | 1017.3 |
| 20260508153355 | 62 | 88 | 0.0 | 0.0 | 0.00 | 0.00 | 0.00 | 94 | 1016.9 |
| 20260508152851 | 62 | 48 | 0.0 | 0.0 | 0.00 | 0.00 | 0.00 | 94 | 1017.3 |
| 20260508152347 | 62 | 87 | 0.0 | 0.0 | 0.00 | 0.00 | 0.00 | 93 | 1016.9 |
| 20260508151844 | 62 | 72 | 0.0 | 0.0 | 0.00 | 0.00 | 0.00 | 93 | 1017.3 |
| 20260508151341 | 62 | 57 | 0.0 | 0.0 | 0.00 | 0.00 | 0.00 | 94 | 1016.9 |
| 20260508150837 | 62 | 57 | 0.0 | 0.0 | 0.00 | 0.00 | 0.00 | 94 | 1017.3 |
| 20260508150334 | 62 | 79 | 0.0 | 0.0 | 0.00 | 0.00 | 0.00 | 94 | 1016.9 |
| 20260508145830 | 62 | 93 | 0.0 | 0.0 | 0.00 | 0.00 | 0.00 | 94 | 1016.9 |
| 20260508145327 | 61 | 83 | 0.0 | 0.0 | 0.00 | 0.00 | 0.00 | 95 | 1017.3 |
| 20260508144823 | 61 | 64 | 0.0 | 0.0 | 0.00 | 0.00 | 0.00 | 95 | 1017.3 |
| 20260508144321 | 61 | 64 | 0.0 | 0.0 | 0.00 | 0.00 | 0.00 | 95 | 1017.6 |
| 20260508143819 | 61 | 62 | 0.0 | 0.0 | 0.00 | 0.00 | 0.00 | 95 | 1017.3 |
| 20260508143315 | 61 | 58 | 0.0 | 0.0 | 0.00 | 0.00 | 0.00 | 95 | 1017.3 |
| 20260508142812 | 61 | 61 | 0.0 | 0.0 | 0.00 | 0.00 | 0.00 | 96 | 1016.9 |
| 20260508142309 | 61 | 97 | 0.0 | 0.0 | 0.00 | 0.00 | 0.00 | 96 | 1017.3 |
| 20260508141806 | 61 | 68 | 0.0 | 0.0 | 0.00 | 0.00 | 0.00 | 96 | 1017.3 |
| 20260508141303 | 61 | 70 | 0.0 | 0.0 | 0.00 | 0.00 | 0.00 | 96 | 1017.3 |
| 20260508140800 | 61 | 75 | 0.0 | 0.0 | 0.00 | 0.00 | 0.00 | 96 | 1017.3 |
| 20260508140257 | 61 | 60 | 0.0 | 0.0 | 0.00 | 0.00 | 0.00 | 96 | 1016.9 |
| 20260508135752 | 61 | 38 | 0.0 | 0.0 | 0.00 | 0.00 | 0.00 | 96 | 1016.9 |
| 20260508135249 | 61 | 51 | 0.0 | 0.0 | 0.00 | 0.00 | 0.00 | 97 | 1016.9 |
| 20260508134745 | 60 | 100 | 0.0 | 0.0 | 0.00 | 0.00 | 0.00 | 97 | 1016.9 |
| 20260508134242 | 60 | 98 | 0.0 | 0.0 | 0.00 | 0.00 | 0.00 | 97 | 1016.9 |
| 20260508133739 | 60 | 66 | 0.0 | 0.0 | 0.00 | 0.00 | 0.00 | 98 | 1016.9 |
| 20260508133236 | 60 | 70 | 0.0 | 0.0 | 0.00 | 0.00 | 0.00 | 98 | 1016.9 |
| 20260508132734 | 60 | 76 | 0.0 | 0.0 | 0.00 | 0.00 | 0.00 | 99 | 1017.3 |
| 20260508132231 | 60 | 75 | 0.0 | 0.0 | 0.00 | 0.00 | 0.00 | 99 | 1016.9 |
| 20260508131727 | 60 | 61 | 0.0 | 0.0 | 0.00 | 0.00 | 0.00 | 99 | 1016.6 |
| 20260508131224 | 60 | 82 | 0.0 | 0.0 | 0.00 | 0.00 | 0.00 | 99 | 1016.6 |
| 20260508130720 | 60 | 77 | 0.0 | 0.0 | 0.00 | 0.00 | 0.00 | 99 | 1016.6 |
| 20260508130217 | 60 | 65 | 2.6 | 4.3 | 0.00 | 0.00 | 0.00 | 99 | 1016.6 |
| 20260508125713 | 60 | 93 | 0.0 | 0.0 | 0.00 | 0.00 | 0.00 | 99 | 1016.6 |
| 20260508125209 | 60 | 65 | 0.0 | 0.0 | 0.00 | 0.00 | 0.00 | 99 | 1016.6 |
| 20260508124708 | 60 | 52 | 0.0 | 0.0 | 0.00 | 0.00 | 0.00 | 99 | 1016.6 |
| 20260508124204 | 60 | 74 | 0.0 | 0.0 | 0.00 | 0.00 | 0.00 | 99 | 1016.6 |
| 20260508123703 | 60 | 83 | 0.0 | 0.0 | 0.00 | 0.00 | 0.00 | 99 | 1016.2 |
| 20260508123201 | 60 | 77 | 3.5 | 4.3 | 0.00 | 0.00 | 0.00 | 99 | 1016.6 |
| 20260508122656 | 61 | 63 | 0.0 | 0.0 | 0.00 | 0.00 | 0.00 | 99 | 1016.6 |
| 20260508122153 | 61 | 72 | 0.0 | 0.0 | 0.00 | 0.00 | 0.00 | 99 | 1016.6 |
| 20260508121651 | 61 | 76 | 0.0 | 0.0 | 0.00 | 0.00 | 0.00 | 99 | 1016.6 |
| 20260508121149 | 61 | 61 | 0.0 | 1.7 | 0.00 | 0.00 | 0.00 | 99 | 1016.2 |
| 20260508120646 | 61 | 81 | 0.0 | 0.0 | 0.00 | 0.00 | 0.00 | 99 | 1016.6 |
| 20260508120144 | 61 | 68 | 0.0 | 0.0 | 0.00 | 0.00 | 0.00 | 98 | 1016.6 |
| 20260508115636 | 61 | 64 | 0.0 | 0.0 | 0.00 | 0.00 | 0.00 | 98 | 1016.2 |
| 20260508115132 | 61 | 52 | 0.0 | 0.0 | 0.00 | 0.00 | 0.00 | 98 | 1016.2 |
| 20260508114630 | 61 | 55 | 0.0 | 0.0 | 0.00 | 0.00 | 0.00 | 98 | 1016.2 |
| 20260508114126 | 61 | 74 | 0.0 | 0.0 | 0.00 | 0.00 | 0.00 | 98 | 1016.2 |
| 20260508113623 | 61 | 88 | 0.0 | 0.0 | 0.00 | 0.00 | 0.00 | 98 | 1016.2 |
| 20260508113122 | 61 | 90 | 0.0 | 0.0 | 0.00 | 0.00 | 0.00 | 98 | 1016.2 |
| 20260508112617 | 61 | 77 | 0.0 | 0.0 | 0.00 | 0.00 | 0.00 | 97 | 1016.2 |
| 20260508112114 | 61 | 64 | 0.0 | 0.0 | 0.00 | 0.00 | 0.00 | 97 | 1016.2 |
| 20260508111611 | 61 | 88 | 0.0 | 0.0 | 0.00 | 0.00 | 0.00 | 97 | 1016.2 |
| 20260508111108 | 61 | 98 | 0.0 | 0.0 | 0.00 | 0.00 | 0.00 | 97 | 1016.2 |
| 20260508110606 | 61 | 55 | 0.0 | 0.0 | 0.00 | 0.00 | 0.00 | 97 | 1015.9 |
| 20260508105557 | 61 | 95 | 0.9 | 1.7 | 0.00 | 0.00 | 0.00 | 96 | 1016.2 |
| 20260508105054 | 61 | 64 | 0.0 | 0.0 | 0.00 | 0.00 | 0.00 | 96 | 1016.2 |
| 20260508104552 | 61 | 86 | 0.0 | 0.0 | 0.00 | 0.00 | 0.00 | 95 | 1016.2 |
| 20260508104048 | 61 | 93 | 0.0 | 0.0 | 0.00 | 0.00 | 0.00 | 95 | 1015.9 |
| 20260508103546 | 61 | 74 | 0.0 | 0.9 | 0.00 | 0.00 | 0.00 | 95 | 1015.9 |
| 20260508103043 | 61 | 90 | 0.0 | 0.0 | 0.00 | 0.00 | 0.00 | 94 | 1016.2 |
| 20260508102540 | 61 | 68 | 0.0 | 0.0 | 0.00 | 0.00 | 0.00 | 94 | 1015.9 |
| 20260508102038 | 61 | 89 | 0.0 | 0.0 | 0.00 | 0.00 | 0.00 | 94 | 1016.2 |
| 20260508101535 | 61 | 68 | 0.0 | 0.0 | 0.00 | 0.00 | 0.00 | 94 | 1016.2 |
| 20260508101032 | 61 | 77 | 0.0 | 0.0 | 0.00 | 0.00 | 0.00 | 94 | 1016.2 |
| 20260508100530 | 60 | 57 | 0.0 | 0.0 | 0.00 | 0.00 | 0.00 | 94 | 1016.2 |
| 20260508100027 | 60 | 63 | 0.0 | 0.0 | 0.00 | 0.00 | 0.00 | 94 | 1016.2 |
| 20260508095524 | 60 | 71 | 0.0 | 0.0 | 0.00 | 0.00 | 0.00 | 94 | 1016.2 |
| 20260508095021 | 60 | 80 | 0.0 | 0.0 | 0.00 | 0.00 | 0.00 | 94 | 1016.6 |
| 20260508094518 | 60 | 91 | 0.0 | 0.0 | 0.00 | 0.00 | 0.00 | 94 | 1016.2 |
| 20260508094015 | 60 | 91 | 0.0 | 0.0 | 0.00 | 0.00 | 0.00 | 94 | 1016.6 |
| 20260508093512 | 61 | 131 | 0.0 | 0.0 | 0.00 | 0.00 | 0.00 | 94 | 1016.2 |
| 20260508093009 | 61 | 171 | 0.0 | 0.0 | 0.00 | 0.00 | 0.00 | 94 | 1016.2 |
| 20260508092506 | 61 | 97 | 0.0 | 0.0 | 0.00 | 0.00 | 0.00 | 94 | 1016.2 |
| 20260508092006 | 61 | 70 | 0.0 | 0.0 | 0.00 | 0.00 | 0.00 | 94 | 1016.6 |
| 20260508091502 | 61 | 137 | 0.0 | 0.0 | 0.00 | 0.00 | 0.00 | 94 | 1016.6 |
| 20260508090959 | 61 | 67 | 0.0 | 0.0 | 0.00 | 0.00 | 0.00 | 94 | 1016.6 |
| 20260508090457 | 61 | 58 | 0.0 | 0.0 | 0.00 | 0.00 | 0.00 | 94 | 1016.6 |
| 20260508085953 | 61 | 78 | 0.0 | 0.0 | 0.00 | 0.00 | 0.00 | 95 | 1016.6 |
| 20260508085450 | 61 | 81 | 0.0 | 0.0 | 0.00 | 0.00 | 0.00 | 95 | 1016.6 |
| 20260508084947 | 61 | 70 | 0.0 | 0.0 | 0.00 | 0.00 | 0.00 | 95 | 1016.6 |
| 20260508084443 | 61 | 94 | 0.0 | 0.0 | 0.00 | 0.00 | 0.00 | 95 | 1016.6 |
| 20260508083942 | 61 | 72 | 0.0 | 0.0 | 0.00 | 0.00 | 0.00 | 95 | 1016.6 |
| 20260508083438 | 61 | 74 | 0.0 | 0.0 | 0.00 | 0.00 | 0.00 | 95 | 1016.6 |
| 20260508082933 | 61 | 57 | 0.0 | 0.0 | 0.00 | 0.00 | 0.00 | 95 | 1016.6 |
| 20260508082430 | 61 | 45 | 0.0 | 0.0 | 0.00 | 0.00 | 0.00 | 95 | 1016.6 |
| 20260508081928 | 61 | 70 | 0.0 | 0.0 | 0.00 | 0.00 | 0.00 | 95 | 1016.6 |
| 20260508081424 | 61 | 57 | 0.0 | 0.0 | 0.00 | 0.00 | 0.00 | 96 | 1016.6 |
| 20260508080920 | 61 | 40 | 0.0 | 0.0 | 0.00 | 0.00 | 0.00 | 96 | 1016.9 |
| 20260508080419 | 61 | 17 | 0.0 | 0.0 | 0.00 | 0.00 | 0.00 | 96 | 1016.9 |
| 20260508075915 | 61 | 0 | 0.0 | 0.0 | 0.00 | 0.00 | 0.00 | 96 | 1016.9 |
| 20260508075413 | 60 | 10 | 0.0 | 0.0 | 0.00 | 0.00 | 0.00 | 96 | 1016.9 |
| 20260508074910 | 60 | 358 | 0.0 | 0.0 | 0.00 | 0.00 | 0.00 | 96 | 1016.9 |
| 20260508074407 | 60 | 7 | 0.0 | 0.0 | 0.00 | 0.00 | 0.00 | 96 | 1016.9 |
| 20260508073904 | 60 | 7 | 0.0 | 0.0 | 0.00 | 0.00 | 0.00 | 96 | 1016.9 |
| 20260508073402 | 61 | 0 | 0.0 | 0.0 | 0.00 | 0.00 | 0.00 | 96 | 1016.9 |
| 20260508072858 | 61 | 4 | 0.0 | 0.0 | 0.00 | 0.00 | 0.00 | 96 | 1016.9 |
| 20260508072354 | 61 | 9 | 0.0 | 0.0 | 0.00 | 0.00 | 0.00 | 95 | 1016.9 |
| 20260508071852 | 61 | 3 | 0.0 | 0.0 | 0.00 | 0.00 | 0.00 | 95 | 1016.6 |
| 20260508071350 | 61 | 18 | 0.0 | 0.0 | 0.00 | 0.00 | 0.00 | 95 | 1016.9 |
| 20260508070848 | 61 | 32 | 0.0 | 0.0 | 0.00 | 0.00 | 0.00 | 95 | 1016.9 |
| 20260508070345 | 60 | 37 | 0.0 | 0.0 | 0.00 | 0.00 | 0.00 | 95 | 1016.6 |
| 20260508065843 | 61 | 43 | 0.0 | 0.0 | 0.00 | 0.00 | 0.00 | 95 | 1016.9 |
| 20260508065341 | 61 | 49 | 0.0 | 0.0 | 0.00 | 0.00 | 0.00 | 95 | 1016.9 |
| 20260508064839 | 61 | 41 | 0.0 | 0.9 | 0.00 | 0.00 | 0.00 | 95 | 1016.6 |
| 20260508064336 | 61 | 44 | 0.0 | 0.0 | 0.00 | 0.00 | 0.00 | 95 | 1016.9 |
| 20260508063834 | 61 | 41 | 0.0 | 0.0 | 0.00 | 0.00 | 0.00 | 95 | 1016.6 |
| 20260508063331 | 61 | 35 | 0.0 | 0.0 | 0.00 | 0.00 | 0.00 | 95 | 1016.9 |
| 20260508062828 | 61 | 34 | 0.0 | 0.0 | 0.00 | 0.00 | 0.00 | 95 | 1016.6 |
| 20260508062326 | 61 | 40 | 0.0 | 0.0 | 0.00 | 0.00 | 0.00 | 95 | 1016.6 |
| 20260508061822 | 61 | 41 | 0.0 | 0.0 | 0.00 | 0.00 | 0.00 | 95 | 1016.6 |
| 20260508061320 | 61 | 24 | 0.0 | 0.0 | 0.00 | 0.00 | 0.00 | 95 | 1016.6 |
| 20260508060816 | 61 | 51 | 0.0 | 0.0 | 0.00 | 0.00 | 0.00 | 95 | 1016.6 |
| 20260508060314 | 61 | 56 | 0.0 | 0.0 | 0.00 | 0.00 | 0.00 | 95 | 1016.6 |
| 20260508055814 | 61 | 51 | 0.0 | 0.0 | 0.00 | 0.00 | 0.00 | 95 | 1016.6 |
| 20260508055313 | 60 | 14 | 0.0 | 0.0 | 0.00 | 0.00 | 0.00 | 95 | 1016.6 |
| 20260508054809 | 60 | 344 | 0.0 | 0.0 | 0.00 | 0.00 | 0.00 | 95 | 1016.9 |
| 20260508054306 | 60 | 337 | 0.0 | 0.0 | 0.00 | 0.00 | 0.00 | 95 | 1016.6 |
| 20260508053803 | 60 | 333 | 0.0 | 0.0 | 0.00 | 0.00 | 0.00 | 95 | 1016.6 |
| 20260508053300 | 61 | 327 | 0.0 | 0.0 | 0.00 | 0.00 | 0.00 | 95 | 1016.6 |
| 20260508052758 | 61 | 325 | 0.0 | 0.0 | 0.00 | 0.00 | 0.00 | 95 | 1016.6 |
| 20260508052255 | 61 | 318 | 0.0 | 0.0 | 0.00 | 0.00 | 0.00 | 95 | 1016.6 |
| 20260508051751 | 61 | 312 | 0.0 | 0.0 | 0.00 | 0.00 | 0.00 | 95 | 1016.6 |
| 20260508051246 | 61 | 304 | 0.0 | 0.0 | 0.00 | 0.00 | 0.00 | 95 | 1016.6 |
| 20260508050743 | 61 | 292 | 0.0 | 0.0 | 0.00 | 0.00 | 0.00 | 95 | 1016.6 |
| 20260508050240 | 61 | 257 | 0.0 | 0.0 | 0.00 | 0.00 | 0.00 | 94 | 1016.6 |
| 20260508045735 | 61 | 254 | 0.0 | 0.0 | 0.00 | 0.00 | 0.00 | 94 | 1016.6 |
| 20260508045234 | 62 | 276 | 0.0 | 0.0 | 0.00 | 0.00 | 0.00 | 94 | 1016.6 |
| 20260508044731 | 62 | 278 | 0.0 | 0.0 | 0.00 | 0.00 | 0.00 | 93 | 1016.6 |
| 20260508044228 | 62 | 262 | 0.0 | 0.0 | 0.00 | 0.00 | 0.00 | 93 | 1016.6 |
| 20260508043723 | 62 | 286 | 0.0 | 0.0 | 0.00 | 0.00 | 0.00 | 93 | 1016.2 |
| 20260508043221 | 62 | 238 | 0.0 | 0.0 | 0.00 | 0.00 | 0.00 | 93 | 1016.2 |
| 20260508042718 | 62 | 243 | 0.0 | 0.0 | 0.00 | 0.00 | 0.00 | 93 | 1016.2 |
| 20260508042215 | 62 | 241 | 0.0 | 0.0 | 0.00 | 0.00 | 0.00 | 93 | 1016.2 |
| 20260508041711 | 62 | 208 | 0.0 | 0.0 | 0.00 | 0.00 | 0.00 | 93 | 1016.2 |
| 20260508041209 | 62 | 267 | 0.0 | 0.0 | 0.00 | 0.00 | 0.00 | 93 | 1015.9 |
| 20260508040705 | 61 | 228 | 0.0 | 0.0 | 0.00 | 0.00 | 0.00 | 93 | 1015.9 |
| 20260508040202 | 61 | 271 | 0.0 | 0.0 | 0.00 | 0.00 | 0.00 | 93 | 1015.9 |
| 20260508035659 | 62 | 225 | 0.0 | 0.0 | 0.00 | 0.00 | 0.00 | 93 | 1015.6 |
| 20260508035157 | 62 | 273 | 0.0 | 0.0 | 0.00 | 0.00 | 0.00 | 93 | 1015.9 |
| 20260508034653 | 62 | 237 | 0.0 | 0.0 | 0.00 | 0.00 | 0.00 | 93 | 1015.9 |
| 20260508034150 | 62 | 240 | 0.0 | 0.0 | 0.00 | 0.00 | 0.00 | 92 | 1015.6 |
| 20260508033648 | 62 | 237 | 0.0 | 0.0 | 0.00 | 0.00 | 0.00 | 92 | 1015.6 |
| 20260508033146 | 62 | 269 | 0.0 | 0.0 | 0.00 | 0.00 | 0.00 | 91 | 1015.6 |
| 20260508032643 | 62 | 245 | 0.0 | 0.0 | 0.00 | 0.00 | 0.00 | 91 | 1015.9 |
| 20260508032140 | 62 | 194 | 0.0 | 0.0 | 0.00 | 0.00 | 0.00 | 91 | 1015.6 |
| 20260508031637 | 62 | 248 | 0.0 | 0.0 | 0.00 | 0.00 | 0.00 | 90 | 1015.6 |
| 20260508031133 | 62 | 288 | 0.0 | 0.0 | 0.00 | 0.00 | 0.00 | 90 | 1015.2 |
| 20260508030629 | 62 | 239 | 0.0 | 0.0 | 0.00 | 0.00 | 0.00 | 91 | 1015.2 |
| 20260508030127 | 62 | 241 | 0.0 | 0.0 | 0.00 | 0.00 | 0.00 | 91 | 1015.2 |
| 20260508025623 | 62 | 231 | 0.0 | 0.0 | 0.00 | 0.00 | 0.00 | 90 | 1015.2 |
| 20260508025121 | 62 | 270 | 0.0 | 0.0 | 0.00 | 0.00 | 0.00 | 90 | 1014.9 |
| 20260508024616 | 63 | 241 | 0.9 | 4.3 | 0.00 | 0.00 | 0.00 | 89 | 1014.9 |
| 20260508024114 | 63 | 265 | 0.0 | 0.0 | 0.00 | 0.00 | 0.00 | 89 | 1014.9 |
| 20260508023610 | 62 | 245 | 0.0 | 0.0 | 0.00 | 0.00 | 0.00 | 90 | 1014.9 |
| 20260508023107 | 63 | 200 | 0.0 | 0.9 | 0.00 | 0.00 | 0.00 | 90 | 1014.9 |
| 20260508022603 | 63 | 250 | 0.9 | 1.7 | 0.00 | 0.00 | 0.00 | 90 | 1014.9 |
| 20260508022101 | 63 | 241 | 0.0 | 0.0 | 0.00 | 0.00 | 0.00 | 89 | 1014.9 |
| 20260508021556 | 63 | 227 | 6.1 | 8.7 | 0.00 | 0.00 | 0.00 | 89 | 1014.9 |
| 20260508021052 | 64 | 232 | 0.9 | 2.6 | 0.00 | 0.00 | 0.00 | 88 | 1014.9 |
| 20260508020550 | 64 | 267 | 0.9 | 1.7 | 0.00 | 0.00 | 0.00 | 88 | 1014.9 |
| 20260508020048 | 64 | 238 | 0.0 | 0.9 | 0.00 | 0.00 | 0.00 | 86 | 1014.6 |
| 20260508015545 | 64 | 233 | 6.1 | 7.0 | 0.00 | 0.00 | 0.00 | 84 | 1014.6 |
| 20260508015042 | 65 | 271 | 5.2 | 7.0 | 0.00 | 0.00 | 0.00 | 84 | 1014.9 |
| 20260508014538 | 65 | 240 | 0.0 | 0.0 | 0.00 | 0.00 | 0.00 | 84 | 1014.9 |
| 20260508014034 | 64 | 237 | 0.0 | 0.0 | 0.00 | 0.00 | 0.00 | 84 | 1014.9 |
| 20260508013530 | 65 | 253 | 7.0 | 8.7 | 0.00 | 0.00 | 0.00 | 84 | 1014.9 |
| 20260508013028 | 65 | 219 | 1.7 | 2.6 | 0.00 | 0.00 | 0.00 | 84 | 1014.6 |
| 20260508012525 | 64 | 240 | 5.2 | 7.0 | 0.00 | 0.00 | 0.00 | 87 | 1014.9 |
| 20260508012022 | 64 | 240 | 7.8 | 11.3 | 0.00 | 0.00 | 0.00 | 88 | 1014.6 |
| 20260508011520 | 64 | 257 | 8.7 | 9.6 | 0.00 | 0.00 | 0.00 | 87 | 1014.9 |
| 20260508011017 | 65 | 244 | 6.1 | 7.8 | 0.00 | 0.00 | 0.00 | 87 | 1014.6 |
| 20260508010514 | 65 | 266 | 5.2 | 6.1 | 0.00 | 0.00 | 0.00 | 87 | 1014.9 |
| 20260508010012 | 65 | 232 | 0.0 | 0.0 | 0.00 | 0.00 | 0.00 | 87 | 1014.6 |
| 20260508005508 | 65 | 224 | 6.1 | 7.8 | 0.00 | 0.00 | 0.00 | 87 | 1014.9 |
| 20260508005005 | 65 | 241 | 4.3 | 6.1 | 0.00 | 0.00 | 0.00 | 87 | 1014.6 |
| 20260508004501 | 65 | 234 | 5.2 | 7.8 | 0.00 | 0.00 | 0.00 | 85 | 1014.6 |
| 20260508003958 | 65 | 270 | 5.2 | 6.1 | 0.00 | 0.00 | 0.00 | 86 | 1014.9 |
| 20260508003454 | 66 | 261 | 4.3 | 6.1 | 0.00 | 0.00 | 0.00 | 85 | 1014.6 |
| 20260508002952 | 65 | 238 | 6.1 | 8.7 | 0.00 | 0.00 | 0.00 | 85 | 1014.9 |
| 20260508002448 | 65 | 264 | 6.1 | 7.8 | 0.00 | 0.00 | 0.00 | 85 | 1014.9 |
| 20260508001944 | 66 | 197 | 5.2 | 7.0 | 0.00 | 0.00 | 0.00 | 85 | 1014.9 |
| 20260508001440 | 66 | 220 | 4.3 | 5.2 | 0.00 | 0.00 | 0.00 | 85 | 1014.9 |
| 20260508000937 | 66 | 244 | 7.8 | 9.6 | 0.00 | 0.00 | 0.00 | 84 | 1014.9 |
| 20260508000434 | 66 | 256 | 7.0 | 9.6 | 0.00 | 0.00 | 0.00 | 84 | 1014.6 |
| 20260507235930 | 66 | 217 | 10.4 | 13.9 | 0.00 | 0.00 | 0.00 | 85 | 1014.6 |
| 20260507235427 | 67 | 250 | 6.1 | 7.0 | 0.00 | 0.00 | 0.00 | 85 | 1014.6 |
| 20260507234924 | 66 | 230 | 6.1 | 8.7 | 0.00 | 0.00 | 0.00 | 86 | 1014.9 |
| 20260507234421 | 67 | 255 | 8.7 | 12.2 | 0.00 | 0.00 | 0.00 | 84 | 1014.6 |
| 20260507233917 | 66 | 220 | 9.6 | 12.2 | 0.00 | 0.00 | 0.00 | 85 | 1014.9 |
| 20260507233414 | 67 | 218 | 8.7 | 12.2 | 0.00 | 0.00 | 0.00 | 85 | 1014.9 |
| 20260507232913 | 67 | 240 | 5.2 | 8.7 | 0.00 | 0.00 | 0.00 | 85 | 1014.9 |
| 20260507232409 | 67 | 216 | 7.0 | 8.7 | 0.00 | 0.00 | 0.00 | 86 | 1014.9 |
| 20260507231906 | 66 | 230 | 6.1 | 9.6 | 0.00 | 0.00 | 0.00 | 85 | 1014.9 |
| 20260507231403 | 67 | 221 | 10.4 | 12.2 | 0.00 | 0.00 | 0.00 | 84 | 1014.9 |
| 20260507230859 | 67 | 249 | 7.0 | 8.7 | 0.00 | 0.00 | 0.00 | 84 | 1014.9 |
| 20260507230357 | 67 | 248 | 7.8 | 8.7 | 0.00 | 0.00 | 0.00 | 83 | 1014.9 |
| 20260507225856 | 67 | 223 | 9.6 | 14.8 | 0.00 | 0.00 | 0.00 | 83 | 1014.9 |
| 20260507225353 | 67 | 248 | 7.0 | 11.3 | 0.00 | 0.00 | 0.00 | 84 | 1014.9 |
| 20260507224849 | 68 | 264 | 9.6 | 11.3 | 0.00 | 0.00 | 0.00 | 82 | 1014.9 |
| 20260507224346 | 67 | 233 | 5.2 | 7.8 | 0.00 | 0.00 | 0.00 | 83 | 1014.9 |
| 20260507223841 | 67 | 225 | 9.6 | 11.3 | 0.00 | 0.00 | 0.00 | 84 | 1014.9 |
| 20260507223338 | 68 | 218 | 2.6 | 4.3 | 0.00 | 0.00 | 0.00 | 82 | 1014.9 |
| 20260507222835 | 67 | 225 | 5.2 | 6.1 | 0.00 | 0.00 | 0.00 | 83 | 1015.2 |
| 20260507222331 | 68 | 258 | 7.8 | 15.6 | 0.00 | 0.00 | 0.00 | 82 | 1015.2 |
| 20260507221829 | 66 | 206 | 5.2 | 7.8 | 0.00 | 0.00 | 0.00 | 84 | 1015.2 |
| 20260507221325 | 67 | 236 | 11.3 | 13.0 | 0.00 | 0.00 | 0.00 | 82 | 1015.2 |
| 20260507220821 | 68 | 217 | 8.7 | 13.0 | 0.00 | 0.00 | 0.00 | 82 | 1015.2 |
| 20260507220320 | 67 | 209 | 6.1 | 7.0 | 0.00 | 0.00 | 0.00 | 81 | 1015.2 |
| 20260507215815 | 67 | 264 | 11.3 | 13.9 | 0.00 | 0.00 | 0.00 | 81 | 1015.2 |
| 20260507215313 | 67 | 263 | 9.6 | 12.2 | 0.00 | 0.00 | 0.00 | 82 | 1015.2 |
| 20260507214810 | 67 | 245 | 6.1 | 7.8 | 0.00 | 0.00 | 0.00 | 82 | 1015.2 |
| 20260507214308 | 67 | 257 | 10.4 | 12.2 | 0.00 | 0.00 | 0.00 | 82 | 1015.6 |
| 20260507213802 | 69 | 179 | 7.0 | 8.7 | 0.00 | 0.00 | 0.00 | 79 | 1015.2 |
| 20260507213259 | 69 | 208 | 5.2 | 7.8 | 0.00 | 0.00 | 0.00 | 79 | 1015.6 |
| 20260507212756 | 69 | 215 | 4.3 | 6.1 | 0.00 | 0.00 | 0.00 | 80 | 1015.6 |
| 20260507212252 | 68 | 222 | 6.1 | 8.7 | 0.00 | 0.00 | 0.00 | 81 | 1015.6 |
| 20260507211749 | 68 | 251 | 7.8 | 8.7 | 0.00 | 0.00 | 0.00 | 80 | 1015.6 |
| 20260507211245 | 68 | 262 | 7.8 | 7.8 | 0.00 | 0.00 | 0.00 | 81 | 1015.9 |
| 20260507210742 | 69 | 238 | 5.2 | 7.8 | 0.00 | 0.00 | 0.00 | 80 | 1015.9 |
| 20260507210239 | 68 | 205 | 4.3 | 7.0 | 0.00 | 0.00 | 0.00 | 82 | 1015.9 |
| 20260507205735 | 67 | 278 | 6.1 | 8.7 | 0.00 | 0.00 | 0.00 | 82 | 1015.6 |
| 20260507205227 | 67 | 239 | 9.6 | 9.6 | 0.00 | 0.00 | 0.00 | 82 | 1015.9 |
| 20260507204723 | 68 | 181 | 6.1 | 7.0 | 0.00 | 0.00 | 0.00 | 81 | 1015.9 |
| 20260507204221 | 68 | 225 | 12.2 | 13.9 | 0.00 | 0.00 | 0.00 | 81 | 1015.9 |
| 20260507203713 | 70 | 270 | 6.1 | 7.8 | 0.00 | 0.00 | 0.00 | 78 | 1015.9 |
| 20260507203210 | 69 | 256 | 3.5 | 5.2 | 0.00 | 0.00 | 0.00 | 78 | 1016.2 |
| 20260507202706 | 69 | 221 | 6.1 | 8.7 | 0.00 | 0.00 | 0.00 | 80 | 1016.2 |
| 20260507202202 | 69 | 258 | 7.8 | 11.3 | 0.00 | 0.00 | 0.00 | 79 | 1016.2 |
| 20260507201657 | 69 | 252 | 7.0 | 8.7 | 0.00 | 0.00 | 0.00 | 78 | 1015.9 |
| 20260507201154 | 69 | 187 | 5.2 | 7.0 | 0.00 | 0.00 | 0.00 | 79 | 1015.9 |
| 20260507200650 | 69 | 151 | 5.2 | 7.0 | 0.00 | 0.00 | 0.00 | 79 | 1016.2 |
| 20260507200146 | 70 | 244 | 7.0 | 7.8 | 0.00 | 0.00 | 0.00 | 78 | 1016.6 |
| 20260507195643 | 69 | 270 | 7.8 | 9.6 | 0.00 | 0.00 | 0.00 | 77 | 1016.2 |
| 20260507195140 | 69 | 276 | 8.7 | 9.6 | 0.00 | 0.00 | 0.00 | 79 | 1016.6 |
| 20260507194637 | 68 | 245 | 6.1 | 7.0 | 0.00 | 0.00 | 0.00 | 80 | 1016.6 |
| 20260507194132 | 68 | 252 | 8.7 | 12.2 | 0.00 | 0.00 | 0.00 | 81 | 1016.6 |
| 20260507193630 | 69 | 254 | 6.1 | 8.7 | 0.00 | 0.00 | 0.00 | 79 | 1016.6 |
| 20260507193127 | 68 | 275 | 8.7 | 9.6 | 0.00 | 0.00 | 0.00 | 80 | 1016.6 |
| 20260507192623 | 70 | 246 | 8.7 | 9.6 | 0.00 | 0.00 | 0.00 | 78 | 1016.6 |
| 20260507192120 | 68 | 219 | 3.5 | 5.2 | 0.00 | 0.00 | 0.00 | 81 | 1016.9 |
| 20260507191616 | 68 | 279 | 8.7 | 9.6 | 0.00 | 0.00 | 0.00 | 79 | 1016.6 |
| 20260507191112 | 68 | 170 | 4.3 | 6.1 | 0.00 | 0.00 | 0.00 | 79 | 1016.6 |
| 20260507190610 | 69 | 245 | 6.1 | 7.0 | 0.00 | 0.00 | 0.00 | 78 | 1016.9 |
| 20260507190109 | 70 | 276 | 7.8 | 9.6 | 0.00 | 0.00 | 0.00 | 77 | 1016.9 |
| 20260507185607 | 70 | 244 | 4.3 | 5.2 | 0.00 | 0.00 | 0.00 | 78 | 1016.9 |
| 20260507185103 | 69 | 264 | 6.1 | 7.8 | 0.00 | 0.00 | 0.00 | 79 | 1016.9 |
| 20260507184601 | 69 | 236 | 0.0 | 0.9 | 0.00 | 0.00 | 0.00 | 79 | 1016.6 |
| 20260507184059 | 68 | 241 | 7.0 | 7.0 | 0.00 | 0.00 | 0.00 | 80 | 1016.9 |
| 20260507183554 | 69 | 244 | 2.6 | 4.3 | 0.00 | 0.00 | 0.00 | 79 | 1016.9 |
| 20260507183051 | 68 | 256 | 6.1 | 7.0 | 0.00 | 0.00 | 0.00 | 79 | 1016.9 |
| 20260507182548 | 68 | 292 | 7.0 | 8.7 | 0.00 | 0.00 | 0.00 | 80 | 1016.9 |
| 20260507182044 | 69 | 305 | 3.5 | 5.2 | 0.00 | 0.00 | 0.00 | 79 | 1016.9 |
| 20260507181541 | 70 | 193 | 3.5 | 4.3 | 0.00 | 0.00 | 0.00 | 77 | 1016.9 |
| 20260507181037 | 69 | 223 | 0.0 | 0.0 | 0.00 | 0.00 | 0.00 | 79 | 1016.9 |
| 20260507180533 | 68 | 274 | 6.1 | 8.7 | 0.00 | 0.00 | 0.00 | 78 | 1016.9 |
| 20260507180031 | 68 | 210 | 2.6 | 5.2 | 0.00 | 0.00 | 0.00 | 81 | 1016.9 |